FW2418 Weather Reports


time (UTC)temp
F
wind
direction
speed
knots
gust
knots
rain 1hr
in
rain 24hr
in
rain mn
in
humidity
%
barometer
mb
20260505004007 70 132 0.9 3.5 0.00 0.00 0.00 67 1013.6
20260505003006 71 125 0.9 3.5 0.00 0.00 0.00 66 1013.6
20260505002005 71 128 0.0 4.3 0.00 0.00 0.00 65 1013.6
20260505001004 72 120 1.7 5.2 0.00 0.00 0.00 64 1013.3
20260505000003 72 125 0.9 5.2 0.00 0.00 0.00 63 1013.3
20260504235002 73 134 1.7 5.2 0.00 0.00 0.00 62 1013.3
20260504233930 73 105 0.9 6.1 0.00 0.00 0.00 61 1012.9
20260504232929 74 116 2.6 7.0 0.00 0.00 0.00 60 1012.9
20260504231928 74 123 1.7 7.0 0.00 0.00 0.00 60 1012.9
20260504230927 75 110 1.7 7.0 0.00 0.00 0.00 60 1012.9
20260504225926 75 96 3.5 6.1 0.00 0.00 0.00 58 1012.9
20260504224925 75 119 3.5 7.0 0.00 0.00 0.00 58 1012.9
20260504223924 76 57 1.7 5.2 0.00 0.00 0.00 57 1012.9
20260504222923 76 106 1.7 7.8 0.00 0.00 0.00 57 1012.9
20260504221922 76 47 1.7 5.2 0.00 0.00 0.00 56 1012.9
20260504220921 76 87 1.7 5.2 0.00 0.00 0.00 56 1012.9
20260504215849 77 54 1.7 5.2 0.00 0.00 0.00 55 1012.9
20260504214745 77 79 1.7 6.1 0.00 0.00 0.00 56 1012.9
20260504213744 77 137 3.5 7.0 0.00 0.00 0.00 54 1012.9
20260504212744 78 111 2.6 6.1 0.00 0.00 0.00 54 1012.9
20260504211711 78 37 3.5 11.3 0.00 0.00 0.00 53 1012.9
20260504210711 78 67 2.6 12.2 0.00 0.00 0.00 53 1013.3
20260504205710 79 108 3.5 11.3 0.00 0.00 0.00 52 1012.9
20260504204709 79 27 2.6 7.8 0.00 0.00 0.00 51 1012.9
20260504203636 80 60 1.7 8.7 0.00 0.00 0.00 50 1012.9
20260504202605 80 114 1.7 5.2 0.00 0.00 0.00 50 1012.9
20260504201532 80 110 2.6 6.1 0.00 0.00 0.00 50 1012.9
20260504200532 80 103 1.7 6.1 0.00 0.00 0.00 52 1013.3
20260504195530 80 71 2.6 8.7 0.00 0.00 0.00 50 1013.3
20260504194529 80 85 1.7 8.7 0.00 0.00 0.00 51 1013.6
20260504193528 81 54 2.6 7.8 0.00 0.00 0.00 50 1013.3
20260504192527 82 90 2.6 7.0 0.00 0.00 0.00 50 1013.6
20260504191526 81 127 1.7 7.8 0.00 0.00 0.00 49 1013.6
20260504190524 82 106 2.6 8.7 0.00 0.00 0.00 48 1014.0
20260504185524 82 34 2.6 7.8 0.00 0.00 0.00 49 1014.0
20260504184523 81 52 3.5 9.6 0.00 0.00 0.00 50 1014.0
20260504183522 81 55 2.6 7.8 0.00 0.00 0.00 50 1014.3
20260504182521 82 74 3.5 7.8 0.00 0.00 0.00 50 1014.3
20260504181521 82 148 2.6 7.8 0.00 0.00 0.00 49 1014.7
20260504180448 81 30 3.5 7.8 0.00 0.00 0.00 50 1014.7
20260504175447 80 38 2.6 8.7 0.00 0.00 0.00 51 1014.6
20260504174447 81 53 2.6 9.6 0.00 0.00 0.00 51 1014.6
20260504173446 82 33 2.6 8.7 0.00 0.00 0.00 50 1014.7
20260504172342 80 100 2.6 7.0 0.00 0.00 0.00 50 1014.7
20260504171341 80 36 1.7 7.0 0.00 0.00 0.00 53 1014.6
20260504170339 81 54 1.7 7.0 0.00 0.00 0.00 51 1014.7
20260504160334 79 9 1.7 10.4 0.00 0.00 0.00 50 1015.3
20260504150154 76 68 0.9 9.6 0.00 0.00 0.00 57 1015.7
20260504141119 76 23 1.7 7.0 0.00 0.00 0.00 57 1015.3
20260504140118 76 28 2.6 8.7 0.00 0.00 0.00 56 1015.3
20260504120145 64 36 0.9 3.5 0.00 0.00 0.00 88 1014.6
20260504081643 59 16 0.0 0.0 0.00 0.00 0.00 94 1013.9
20260504080642 59 16 0.0 0.0 0.00 0.00 0.00 93 1013.9
20260504050420 65 39 0.0 0.9 0.00 0.01 0.00 84 1015.0
20260504045420 65 40 0.0 0.9 0.00 0.01 0.00 84 1015.3
20260504044419 65 40 0.0 0.9 0.00 0.01 0.00 84 1015.3
20260504043417 65 39 0.0 0.9 0.00 0.01 0.00 84 1015.3
20260504042417 66 18 0.0 0.9 0.00 0.01 0.00 84 1015.3
20260504041416 66 70 0.9 0.9 0.00 0.01 0.00 83 1015.3
20260504040414 65 71 0.0 0.9 0.00 0.01 0.00 83 1015.3
20260504035414 65 37 0.0 0.9 0.00 0.01 0.01 83 1015.3
20260504034413 66 37 0.0 0.9 0.00 0.02 0.01 83 1015.3
20260504033412 65 37 0.0 0.0 0.00 0.03 0.01 83 1015.3
20260504032411 66 37 0.0 0.9 0.00 0.04 0.01 83 1015.3
20260504031410 66 37 0.0 0.9 0.00 0.05 0.01 82 1015.3
20260504030409 66 36 0.9 0.9 0.00 0.05 0.01 82 1015.3
20260504025408 66 50 0.0 0.9 0.00 0.06 0.01 81 1015.3
20260504024408 66 32 0.9 2.6 0.00 0.06 0.01 80 1015.3
20260504023407 66 28 0.9 3.5 0.00 0.06 0.01 80 1015.3
20260504022406 67 68 0.0 2.6 0.00 0.06 0.01 79 1015.3
20260504021405 67 356 0.9 2.6 0.00 0.07 0.01 79 1015.3
20260504020302 67 16 1.7 3.5 0.00 0.07 0.01 78 1015.0
20260504015301 67 54 0.9 3.5 0.00 0.07 0.01 78 1015.0
20260504014259 67 13 0.9 4.3 0.00 0.07 0.01 77 1015.0
20260504013258 67 39 0.9 3.5 0.00 0.07 0.01 77 1015.0
20260504012257 68 13 0.9 3.5 0.00 0.07 0.01 76 1015.0
20260504011256 68 20 0.9 3.5 0.00 0.07 0.01 75 1014.6
20260504010256 68 19 0.9 3.5 0.00 0.07 0.01 75 1014.6
20260504005255 68 20 1.7 4.3 0.00 0.07 0.01 75 1014.6